Flag for Maldives Weather past 2 weeks in Male, Maldives

Now
88 °F

Passing clouds.


Feels Like: 98 °F
Forecast: 82 / 88 °F
Wind: 13 mph from East

Location: Male Airport

Current Time: Feb 1, 2015 at 12:22:03 PM

Latest Report: Feb 1, 2015 at 11:00 AM


Visibility: N/A

Pressure: 29.95 "Hg

Humidity: 66%

Dew point: 75 °F

Location of MaleLocation

Historic Weather in Male — Graph

°F

Male temperature yesterday

Maximum temperature yesterday: 88 °F (at 10:00 AM)
Minimum temperature yesterday: 82 °F (at 12:00 AM)
Average temperature yesterday: 84 °F

Past Weeks' High & Low Weather Summary

 TemperatureHumidityPressure
High90 °F (Jan 28, 12:00 PM)84% (Jan 18, 2:00 AM)30.04 "Hg (Jan 18, 2:00 AM)
Low81 °F (Jan 18, 2:00 AM)59% (Jan 20, 11:00 AM)29.77 "Hg (Jan 27, 4:00 PM)
Average84 °F74%29.90 "Hg
* Reported Jan 17 11:00 AM — Feb 1 11:00 AM, Male, Weather by CustomWeather, © 2014

Note: Actual official high and low records may vary slightly from our data, if they occured in-between our weather recording intervals... More about our weather records

Advertising

Male weather history for previous 24 hours

 ConditionsComfort  
Time TempWeatherWind HumidityBarometerVisibility
11:00 AM
Feb 1
88 °FPassing clouds.13 mph66%29.95 "HgN/A
9:00 AM86 °FPassing clouds.12 mph70%29.95 "HgN/A
8:00 AM84 °FPassing clouds.12 mph74%29.95 "HgN/A
7:00 AM82 °FScattered clouds.12 mph79%29.92 "HgN/A
6:00 AM81 °FPassing clouds.13 mph84%29.89 "HgN/A
5:00 AM82 °FPassing clouds.13 mph79%29.86 "HgN/A
3:00 AM82 °FPassing clouds.15 mph79%29.86 "HgN/A
2:00 AM82 °FPartly cloudy.15 mph79%29.86 "HgN/A
1:00 AM82 °FPartly cloudy.14 mph79%29.89 "HgN/A
12:00 AM82 °FPassing clouds.13 mph84%29.92 "HgN/A
11:00 PM
Jan 31
82 °FPassing clouds.12 mph84%29.95 "HgN/A
10:00 PM82 °FWarm.12 mph84%29.95 "HgN/A
9:00 PM82 °FPassing clouds.14 mph84%29.95 "HgN/A
8:00 PM82 °FPartly cloudy.15 mph84%29.92 "HgN/A
7:00 PM82 °FPassing clouds.15 mph84%29.89 "HgN/A
6:00 PM84 °FScattered clouds.15 mph79%29.89 "HgN/A
5:00 PM86 °FPartly sunny.16 mph75%29.86 "HgN/A
4:00 PM86 °FScattered clouds.13 mph75%29.86 "HgN/A
3:00 PM86 °FScattered clouds.17 mph75%29.86 "HgN/A
2:00 PM86 °FScattered clouds.17 mph75%29.89 "HgN/A
1:00 PM88 °FPartly sunny.17 mph70%29.92 "HgN/A
12:00 PM88 °FScattered clouds.20 mph66%29.92 "HgN/A
Weather by CustomWeather, © 2014

See weather overviewHow to use our weather pages